Weather History for Greenville/Spartanburg, SC

Change the Weather History Date:

Friday, July 11, 2014

  Actual Average Record
Temperature  
Mean Temperature 78 °F 80 °F  
Max Temperature 88 °F 91 °F 100 °F (1936)
Min Temperature 68 °F 69 °F 54 °F (1891)
Degree Days  
Heating Degree Days 0 0  
Month to date heating degree days 0 0  
Since 1 June heating degree days 0 2  
Since 1 July heating degree days 0 0  
Cooling Degree Days 13 15  
Month to date cooling degree days 151 163  
Year to date cooling degree days 791 715  
Since 1 June cooling degree days 535 514  
Growing Degree Days 28 (Base 50)    
Moisture  
Dew Point 69 °F    
Average Humidity 78    
Maximum Humidity 100    
Minimum Humidity 55    
Precipitation  
Precipitation 0.00 in 0.14 in 3.33 in (1896)
Month to date precipitation 1.10 1.57  
Year to date precipitation 23.73 24.80  
Snow  
Snow 0.00 in 0.00 in 0.00 in ()
Month to date snowfall 0.0 0.0  
Since 1 June snowfall 0.0 0.0  
Since 1 July snowfall 0.0 0.0  
Snow Depth 0.00 in    
Sea Level Pressure  
Sea Level Pressure 30.13 in    
Wind  
Wind Speed 5 mph (East)    
Max Wind Speed 13 mph    
Max Gust Speed 17 mph    
Visibility 10 miles    
Events      
T = Trace of Precipitation, MM = Missing Value Source: NWS Daily Summary

Daily Weather History Graph

Daily Weather History Graph

Search for Another Location

Airport:

Trip Planner

Search our weather history database for the weather conditions in past years. The results will help you decide how hot, cold, wet, or windy it might be!

Date:

Astronomy

Jul. 11, 2014 Rise Set
Actual Time 6:24 AM EDT 8:44 PM EDT
Civil Twilight 5:54 AM EDT 9:13 PM EDT
Nautical Twilight 5:19 AM EDT 9:49 PM EDT
Astronomical Twilight 4:40 AM EDT 10:28 PM EDT
Moon 7:56 PM EDT (7/11) 5:32 AM EDT (7/11)
Length of Visible Light 15h 18m
Length of Day
14h 20m
Waxing Gibbous, 99% of the Moon is Illuminated
Jul 11
Waxing Gibbous
Jul 12
Full
Jul 18
Last Quarter
Jul 26
New
Aug 3
First Quarter

Hourly Weather History & Observations

Time (EDT) Temp. Heat Index Dew Point Humidity Pressure Visibility Wind Dir Wind Speed Gust Speed Precip Events Conditions
12:53 AM 71.1 °F - 68.0 °F 90% 30.10 in 10.0 mi North 3.5 mph - N/A   Scattered Clouds
1:53 AM 70.0 °F - 69.1 °F 97% 30.10 in 10.0 mi ENE 3.5 mph - N/A   Overcast
2:53 AM 70.0 °F - 68.0 °F 93% 30.09 in 10.0 mi Calm Calm - N/A   Clear
3:53 AM 69.1 °F - 66.9 °F 93% 30.09 in 10.0 mi NNW 3.5 mph - N/A   Clear
4:53 AM 68.0 °F - 66.9 °F 96% 30.09 in 10.0 mi Calm Calm - N/A   Clear
5:53 AM 69.1 °F - 68.0 °F 96% 30.09 in 10.0 mi NNE 3.5 mph - N/A   Clear
6:53 AM 69.1 °F - 68.0 °F 96% 30.11 in 10.0 mi Calm Calm - N/A   Clear
7:53 AM 71.1 °F - 69.1 °F 93% 30.12 in 10.0 mi NNE 3.5 mph - N/A   Clear
8:53 AM 73.0 °F - 69.1 °F 87% 30.15 in 10.0 mi NE 4.6 mph - N/A   Clear
9:53 AM 75.9 °F - 69.1 °F 79% 30.16 in 10.0 mi NE 9.2 mph - N/A   Clear
10:53 AM 79.0 °F - 69.1 °F 72% 30.17 in 10.0 mi NNE 8.1 mph - N/A   Clear
11:53 AM 82.9 °F 86.5 °F 69.1 °F 63% 30.17 in 10.0 mi NNE 6.9 mph - N/A   Clear
12:53 PM 82.9 °F 85.8 °F 68.0 °F 60% 30.16 in 10.0 mi Variable 6.9 mph - N/A   Clear
1:53 PM 84.0 °F 86.5 °F 66.9 °F 56% 30.14 in 10.0 mi ESE 5.8 mph - N/A   Partly Cloudy
2:53 PM 84.9 °F 88.2 °F 68.0 °F 57% 30.13 in 10.0 mi SSE 6.9 mph - N/A   Scattered Clouds
3:53 PM 84.9 °F 88.2 °F 68.0 °F 57% 30.12 in 10.0 mi SE 6.9 mph - N/A   Overcast
4:53 PM 87.1 °F 91.3 °F 69.1 °F 55% 30.10 in 10.0 mi Calm Calm - N/A   Scattered Clouds
5:53 PM 84.0 °F 87.8 °F 69.1 °F 61% 30.10 in 10.0 mi East 10.4 mph - N/A   Mostly Cloudy
6:53 PM 84.0 °F 89.0 °F 71.1 °F 65% 30.11 in 10.0 mi ESE 6.9 mph - N/A   Mostly Cloudy
7:53 PM 82.0 °F 85.9 °F 70.0 °F 67% 30.12 in 10.0 mi SE 5.8 mph - N/A   Clear
8:53 PM 78.1 °F - 71.1 °F 79% 30.14 in 10.0 mi SE 3.5 mph - N/A   Clear
9:53 PM 75.9 °F - 70.0 °F 82% 30.15 in 10.0 mi SSE 5.8 mph - N/A   Clear
10:53 PM 73.9 °F - 70.0 °F 87% 30.17 in 10.0 mi SE 5.8 mph - N/A   Clear
11:53 PM 73.9 °F - 70.0 °F 87% 30.18 in 10.0 mi South 3.5 mph - N/A   Clear